Location: Mountain View
(37.3861°N, 122.0839°W)
Time: 20:48:40
(UTC-07:00)

Envisat - Pass Details

Date: 18 May 2026
Orbit: 761 x 763 km, 98.4° (Epoch: 9 June)

Event Time Altitude Azimuth Distance (km) Brightness Sun altitude
Rises 05:00:59 0° 354° (N) 3,229 6.7 -10.4°
Reaches altitude 10° 05:04:02 10° 334° (NNW) 2,299 5.6 -9.9°
Maximum altitude 05:07:10 17° 296° (WNW) 1,865 4.7 -9.4°
Drops below altitude 10° 05:10:19 10° 257° (WSW) 2,290 4.9 -8.9°
Enters shadow 05:10:28 10° 256° (WSW) 2,330 4.9 -8.9°
